Location: Clanezzo
(45.7500°N, 9.6000°E)
Time: 21:58:47
(UTC+00:00)

STARS - Pass Details

Date: 04 July 2022
Orbit: 620 x 637 km, 98.2° (Epoch: 16 August)

Event Time Altitude Azimuth Distance (km) Brightness Sun altitude
Rises 21:59:35 0° 15° (NNE) 2,930 ? -18.7°
Reaches altitude 10° 22:01:49 10° 18° (NNE) 2,015 ? -18.8°
Maximum altitude 22:06:11 71° 103° (ESE) 666 ? -19.1°
Enters shadow 22:07:28 44° 172° (S) 868 ? -19.1°
